Hourly Weather Roundup
Issued by NWS Central Illinois

Home | Current Version | Previous Version | Text Only | Print | Product List | Glossary On
Versions: 1 2 3 4 5 6 7 8 9 10 11 12 13 14 15 16 17 18 19 20 21 22 23 24 25 26 27 28 29 30 31 32 33 34 35 36 37 38 39 40 41 42 43 44 45 46 47 48 49 50
000
NZUS43 KILX 240010
HWRILX

AREA WEATHER ROUNDUP
NATIONAL WEATHER SERVICE, LINCOLN IL
700 PM CDT WED APR 23 2014


CITY           SKY/WX    TMP DP  RH WIND       PRES   REMARKS
BLOOMINGTON    LGT RAIN  53  36  52 E12       30.05F
CHAMPAIGN      CLOUDY    60  27  28 E3        30.06S
6HR MIN TEMP:  56; 6HR MAX TEMP:  63;

DANVILLE       MOCLDY    58  25  27 CALM      30.03S
6HR MIN TEMP:  55; 6HR MAX TEMP:  61;

DECATUR        CLOUDY    60  27  28 E9        30.04F
6HR MIN TEMP:  57; 6HR MAX TEMP:  63;

FLORA          PTCLDY    60  32  34 NE7       30.04S
6HR MIN TEMP:  56; 6HR MAX TEMP:  63;

GALESBURG      CLOUDY    50  41  71 E10       29.99F
JACKSONVILLE   CLOUDY    60  29  30 E12       30.00F
6HR MIN TEMP:  60; 6HR MAX TEMP:  62;

LACON          LGT RAIN  54  34  46 E12       30.02F
6HR MIN TEMP:  54; 6HR MAX TEMP:  60;

LAWRENCEVILLE  PTCLDY    62  29  28 E5        30.04S
6HR MIN TEMP:  58; 6HR MAX TEMP:  65;

LITCHFIELD     CLOUDY    58  35  41 E7        30.00F
$$


CITY           SKY/WX    TMP DP  RH WIND       PRES   REMARKS
LINCOLN        CLOUDY    60  28  29 E7        30.00F
6HR MIN TEMP:  59; 6HR MAX TEMP:  64;

MACOMB         CLOUDY    53  41  62 E10       30.01F
MATTOON        CLOUDY    59  27  29 E5        30.05R
6HR MIN TEMP:  55; 6HR MAX TEMP:  61;

MT CARMEL AP   PTCLDY    63  32  31 NE5       30.04S
OLNEY-NOBLE AP MOCLDY    59  34  38 CALM      30.04S
PARIS          CLOUDY    60  33  36 CALM      30.06S
6HR MIN TEMP:  56; 6HR MAX TEMP:  62;

PEORIA         CLOUDY    55  37  50 E8        30.03F
6HR MIN TEMP:  54; 6HR MAX TEMP:  63; 6HR PCP:  0.02;

PONTIAC        CLOUDY    57  28  33 E9        30.07S
RANTOUL        CLOUDY    61  25  25 CALM      30.07S
6HR MIN TEMP:  56; 6HR MAX TEMP:  64;

ROBINSON       MOCLDY    60  38  44 NE5       30.06S
6HR MIN TEMP:  59; 6HR MAX TEMP:  65;

SPRINGFIELD    CLOUDY    61  28  28 E8        30.01F
6HR MIN TEMP:  58; 6HR MAX TEMP:  64; 6HR PCP: TRACE;

TAYLORVILLE    CLOUDY    59  28  31 E10       30.01F
$$

...REGIONAL REPORTS...


CITY           SKY/WX    TMP DP  RH WIND       PRES   REMARKS
CHICAGO O`HARE CLOUDY    44  20  38 E8        30.11F
KANKAKEE       CLOUDY    49  32  51 NE7       30.10S
MOLINE         LGT RAIN  48  41  76 SE8       30.01S
MOUNT VERNON   CLOUDY    61  32  33 NE6       30.03S
PITTSFIELD     CLOUDY    59  34  39 E8        30.00F
QUINCY         CLOUDY    59  33  37 SE16      29.96F
ROCKFORD       CLOUDY    52  25  35 SE10      30.09F
$$


CITY           SKY/WX    TMP DP  RH WIND       PRES   REMARKS
BURLINGTON     CLOUDY    53  38  56 SE10      29.95F
CEDAR RAPIDS   CLOUDY    46  40  79 SE13G23   29.94F
DES MOINES     CLOUDY    49  40  71 SE13G22   29.84F
KIRKSVILLE     CLOUDY    58  37  45 SE20G25   29.88F
OTTUMWA        CLOUDY    50  39  66 E14       29.90F
ST LOUIS       CLOUDY    63  36  36 E13       29.98F
$$


CITY           SKY/WX    TMP DP  RH WIND       PRES   REMARKS
TERRE HAUTE    PTCLDY    57  34  41 NE7       30.05S
EVANSVILLE     CLEAR     63  32  31 N6        30.03S
INDIANAPOLIS   PTCLDY    55  28  35 CALM      30.06S
LAFAYETTE      PTCLDY    56  29  35 NE6       30.07S
MADISON        LGT RAIN  50  32  50 SE9G20    30.08S
MILWAUKEE      CLOUDY    40  20  44 NE6       30.14S
$$





USA.gov is the U.S. government's official web portal to all federal, state and local government web resources and services.